Location: Northwest Suburban Astronomers
(42.1100°N, 88.0300°W)
Time: 03:14:25
(UTC-05:00)

Daily predictions for brighter satellites

Satellite Brightness Start Highest point End
(mag) Time Altitude Azimuth Time Altitude Azimuth Time Altitude Azimuth
ATLAS 3B R/B 4.4 01:58:26 28° N 01:58:26 28° N 02:02:25 10° NNE
FALCON 9 R/B 4.5 02:31:24 55° SE 02:31:24 55° SE 02:56:28 10° E
Cosmos 2263 Rocket 4.5 02:27:30 10° N 02:31:06 19° NE 02:31:06 19° NE
SL-16 R/B 3.8 03:16:19 34° N 03:16:19 34° N 03:19:36 10° NNW
Cosmos 2322 Rocket 3.3 03:28:06 41° NE 03:28:06 41° NE 03:31:48 10° NNE
CENTAUR R/B 3.0 03:30:07 55° NNE 03:30:07 55° NNE 03:35:34 10° NNE
SL-16 R/B 3.1 03:31:51 45° NE 03:31:51 45° NE 03:35:48 10° NNE
ADEOS Rocket 3.7 03:25:23 10° NNE 03:29:19 45° NE 03:29:19 45° NE
USA 215 3.9 03:26:25 10° ESE 03:32:43 51° NNE 03:39:01 10° NW
ARIANE 5 R/B 3.9 03:41:28 10° N 03:44:11 32° N 03:44:11 32° N
CZ-2D R/B 3.2 03:49:47 10° N 03:53:18 38° NNW 03:53:18 38° NNW
Cosmos 2360 Rocket 2.9 03:57:54 45° ESE 03:58:22 46° ESE 04:03:44 10° NE
Cosmos 1980 Rocket 3.7 04:01:00 24° NNW 04:01:00 24° NNW 04:04:16 10° N
Resurs 1-4 Rocket 3.3 03:54:35 10° N 03:57:40 33° NNW 03:57:40 33° NNW
Okean O Rocket 3.1 04:04:57 10° NNE 04:08:57 32° E 04:09:49 30° ESE
Cosmos 2263 Rocket 3.6 04:10:22 10° NNW 04:12:41 26° NNW 04:12:41 26° NNW
Cosmos 2184 Rocket 4.2 04:10:08 10° N 04:16:20 69° E 04:22:34 10° SSE
Cosmos 1340 4.2 04:18:04 34° E 04:18:04 34° E 04:21:15 10° NNE
DELTA 2 R/B (1) 4.5 04:20:34 35° SSE 04:20:34 35° SSE 04:25:28 10° E
Cosmos 1777 Rocket 4.2 04:16:05 10° NNW 04:21:24 71° ENE 04:26:40 10° SSE
Meteor 1-18 Rocket 4.3 04:22:10 49° SSE 04:23:37 72° E 04:29:12 10° NNE
MOS 1-B 4.2 04:18:54 10° NNE 04:24:45 89° WNW 04:25:50 62° SSW
ADEOS II 3.0 04:22:19 10° NNE 04:27:23 45° E 04:30:52 19° SSE
Lacrosse 5 4.0 04:34:51 14° SSE 04:34:51 14° SSE 04:35:32 10° SSE
Cosmos 1455 Rocket 3.3 04:26:37 10° N 04:31:00 67° E 04:32:07 47° SE
Cosmos 2322 3.8 04:29:55 50° S 04:31:24 75° ESE 04:37:09 10° NNE
MOS 1 Rocket 3.1 04:28:24 10° N 04:33:13 86° WNW 04:33:14 86° W
Cosmos 1975 Rocket 4.3 04:38:19 29° NNW 04:38:19 29° NNW 04:40:45 10° N
EO 1 Del DPAF 4.0 04:34:09 19° SE 04:36:41 51° ENE 04:40:27 10° N
Okean 1 3.3 04:40:05 80° NE 04:40:05 80° NE 04:44:01 10° N
Cosmos 1238 Rocket 4.1 04:46:13 22° SE 04:47:16 27° E 04:49:51 10° NNE
Cosmos 2154 Rocket 4.3 04:43:48 10° N 04:50:00 67° E 04:56:09 10° SSE
Lacrosse 4 Rocket 1.6 04:46:07 10° NNW 04:50:18 71° ENE 04:54:34 10° SE
Cosmos 1975 2.7 04:46:15 10° N 04:50:19 82° W 04:50:38 74° SSW
CZ-4B DEB 4.3 04:50:27 10° NNE 04:56:03 80° ESE 05:00:33 16° S
Cosmos 1536 Rocket 3.5 04:54:41 39° S 04:56:19 88° W 05:00:49 10° N
Cosmos 2208 Rocket 4.4 04:53:05 19° S 04:56:57 67° ESE 05:02:22 10° NNE
Cosmos 1500 3.4 04:53:49 10° NNW 04:57:02 54° NW 04:57:02 54° NW
Tiangong 2 1.4 04:59:14 63° E 04:59:14 63° E 05:01:56 10° E
CZ-4B R/B 3.2 04:54:41 10° NNE 05:00:23 87° ESE 05:04:58 16° SSW
IRAS Rocket 4.2 04:57:58 10° NNE 05:03:33 84° ESE 05:08:32 13° SSW
PSLV R/B 4.1 05:00:26 10° N 05:03:40 43° NW 05:03:40 43° NW
Cosmos 1610 Rocket 4.4 05:04:23 10° NNW 05:10:35 65° W 05:16:49 10° S
Cosmos 2322 Rocket 3.6 05:09:55 20° WNW 05:10:47 21° NW 05:14:58 10° N
Gblst 52 Del rocket 4.3 05:06:19 16° NW 05:11:05 87° NE 05:17:30 10° SE
PSLV R/B 3.4 05:07:46 10° N 05:12:06 75° WNW 05:14:44 23° SSW
SL-16 R/B 3.6 05:13:43 19° WNW 05:14:48 20° NW 05:18:59 10° N
Cosmos 2237 4.2 05:11:23 24° SSW 05:14:55 74° WNW 05:20:41 10° NNE
Nadezhda 1 Rocket 4.0 05:10:50 20° SSW 05:15:00 56° W 05:20:59 10° N
USA 215 3.3 05:09:18 10° SSE 05:15:41 53° SW 05:22:06 10° NW
ADEOS Rocket 4.3 05:12:21 10° NNW 05:15:53 17° WNW 05:16:15 17° WNW
COSMOS 2428 2.6 05:14:19 17° SSW 05:18:44 87° WNW 05:24:27 10° NNE
CENTAUR R/B 4.2 05:17:17 15° WNW 05:20:40 22° NNW 05:25:59 10° NNE
ERS-2 2.6 05:17:04 10° NNE 05:20:45 63° ESE 05:24:24 10° S
CZ-2C R/B 3.7 05:17:43 10° S 05:22:15 57° W 05:26:43 10° NNW
ISS -2.2 05:24:20 21° SSW 05:24:20 21° SSW 05:25:59 10° SSE
USA 229 DEB 4.3 05:16:55 10° SSW 05:23:33 57° ESE 05:30:18 10° NE
USA 229 4.3 05:17:02 10° SSW 05:23:39 56° ESE 05:30:24 10° NE
Thor Agena Rocket 4.3 05:18:52 10° SSE 05:23:47 54° ENE 05:28:41 10° N
Cosmos 2219 Rocket 2.6 05:20:08 10° S 05:25:36 62° ESE 05:31:08 10° NNE
Cosmos 2341 Rocket 3.9 05:21:21 10° N 05:27:37 85° W 05:33:49 10° S
Meteor 1-19 Rocket 4.2 05:25:21 10° SSW 05:30:58 82° W 05:36:43 10° N
IRS-1C Rocket 4.4 05:28:57 10° N 05:33:55 44° WNW 05:38:01 15° SW
Cosmos 1844 Rocket 2.6 05:28:38 10° NNW 05:34:14 77° WSW 05:39:46 10° SSE
Cosmos 1570 Rocket 4.2 05:31:16 18° SW 05:35:04 52° WNW 05:40:12 10° N
CZ-4B R/B 4.2 05:32:33 10° NNE 05:37:05 82° ESE 05:41:35 10° S
CZ-4B R/B 3.8 05:35:05 10° NNW 05:38:00 23° WNW 05:38:35 22° W
Cosmos 1898 Rocket 3.7 05:35:53 10° NNW 05:41:08 77° ENE 05:46:17 10° SSE
Cosmos 2360 Rocket 3.2 05:39:41 19° W 05:42:33 28° NW 05:47:23 10° N
Cosmos 468 Rocket 4.2 05:39:24 10° SSW 05:44:32 74° ESE 05:49:46 10° NNE
Cosmos 2278 Rocket 3.0 05:38:56 10° NNW 05:44:32 56° ENE 05:50:05 10° SE
Okean O Rocket 2.8 05:41:35 10° NNW 05:45:10 24° WNW 05:47:17 17° WSW
Meteor 2-4 Rocket 3.6 05:43:52 10° SSW 05:49:29 80° W 05:55:00 10° N
Cosmos 2237 Rocket 2.9 05:44:58 10° S 05:50:31 58° ESE 05:56:07 10° NNE
Cosmos 405 Rocket 3.2 05:48:24 10° S 05:52:27 70° E 05:56:29 10° NNE
Cosmos 1340 4.4 05:52:57 15° W 05:53:37 15° WNW 05:55:53 10° NNW
Feng Yun 1-1 Rocket 4.3 05:48:16 10° NNE 05:54:10 78° WNW 05:59:54 10° SSW
Okean-O 2.6 05:51:04 10° N 05:55:28 65° WNW 05:59:52 10° SSW
COSMO-SKYMED 1 3.0 05:52:21 10° SSE 05:56:38 66° ENE 06:00:58 10° N
Cosmos 1666 3.1 05:56:25 10° NNW 06:00:05 42° W 06:03:45 10° SSW
Cosmos 2285 Rocket 4.0 05:55:52 10° SSW 06:02:18 81° WNW 06:08:47 10° NNE
Cosmos 1743 3.8 05:59:11 10° NW 06:02:19 24° W 06:05:26 10° SW
Meteor 1-31 Rocket 3.1 05:59:02 10° N 06:02:41 44° WNW 06:06:18 10° SW
Cosmos 1726 Rocket 3.9 05:59:20 10° N 06:03:47 75° E 06:08:13 10° SSE
Cosmos 858 Rocket 4.5 06:00:09 10° NNW 06:05:27 76° WSW 06:10:40 10° SSE
DELTA 2 R/B (1) 3.8 06:01:20 12° WSW 06:06:29 65° S 06:12:00 10° E
ATLAS 5 CENTAUR R/B 2.6 06:00:42 10° NNW 06:06:43 80° NE 06:13:15 10° SE
ADEOS II 3.2 06:02:39 10° NNW 06:06:48 24° WNW 06:10:57 10° WSW
Cosmos 2333 Rocket 2.2 06:01:13 10° SSW 06:06:56 79° WNW 06:12:42 10° NNE
BREEZE M DEB (TANK) 3.1 05:57:13 10° WNW 06:07:00 89° NNE 06:10:16 10° ESE
Cosmos 1025 Rocket 3.2 06:04:46 10° SSW 06:09:02 53° W 06:13:21 10° N
Cosmos 1892 Rocket 3.7 06:07:10 10° S 06:11:29 81° E 06:15:53 10° N
Cosmos 1937 Rocket 3.5 06:08:11 10° NNW 06:13:32 78° WSW 06:18:48 10° SSE
NOSS 0 Rocket 3.9 06:07:41 10° SSW 06:13:52 81° WNW 06:20:05 10° NNE
Cosmos 1763 Rocket 3.7 06:10:22 10° S 06:15:24 74° ESE 06:20:31 10° NNE
NOAA 6 4.0 06:11:23 10° N 06:16:29 69° WNW 06:21:33 10° SSW
Cosmos 1959 Rocket 4.4 06:10:37 10° NNW 06:16:40 69° W 06:22:44 10° S
Cosmos 1346 4.4 06:16:50 10° SSE 06:19:33 41° E 06:22:16 10° NNE
Cosmos 2298 Rocket 4.2 06:17:59 10° NNW 06:23:09 52° WSW 06:28:18 10° S
Cosmos 2366 rocket 4.1 06:21:39 10° NNW 06:27:55 65° W 06:34:11 10° S
